Regional Weather Roundup
Issued by NWS

Home | Current Version | Previous Version | Graphics & Text | Print | Product List | Glossary On
Versions: 1 2 3 4 5 6 7 8 9 10 11 12 13 14 15 16 17 18 19 20 21 22 23 24 25 26 27 28 29 30 31 32 33 34 35 36 37 38 39 40 41 42 43 44 45 46 47 48 49 50
962
ASUS44 KLIX 161301
RWRLA
LOUISIANA WEATHER ROUNDUP
NATIONAL WEATHER SERVICE NEW ORLEANS LA
800 AM CDT WED APR 16 2014

NOTE: "FAIR" INDICATES FEW OR NO CLOUDS BELOW 12,000 FEET WITH NO
      SIGNIFICANT WEATHER AND/OR OBSTRUCTIONS TO VISIBILITY.
      SKY/WX - SKY CONDITION AND SIGNIFICANT WEATHER.
      TMP - AIR TEMPERATURE.    DP   - DEWPOINT TEMPERATURE.
      RH  - RELATIVE HUMIDITY.  PRES - PRESSURE.
      HX  - HEAT INDEX.         WCI  - WIND CHILL INDEX.

*  THESE STATIONS ARE NOT NWS OR FAA STATIONS AND ARE NOT UNDER
   NWS QUALITY CONTROL.

LAZ040-048-061>063-065-066-069-161400-
SOUTHEAST LOUISIANA

CITY           SKY/WX    TMP DP  RH WIND       PRES   REMARKS
N.O. AUDUBON   NOT AVBL
N.O. INTL ARPT MOSUNNY   49  31  49 E12G18    30.23R
N.O. LAKEFRONT SUNNY     48  36  63 E15       30.24R
N.O. DOWNTOWN* FAIR      48  30  49 NE6       30.23S
SLIDELL        SUNNY     44  32  62 E9        30.24R
BATON ROUGE    SUNNY     42  33  70 NE6       30.26R
BOOTHVILLE     SUNNY     55  39  54 E10       30.21R
BELLE CHASSE   MOSUNNY   49  37  63 NE8       30.22R
BOGALUSA*        N/A     45  32  60 E9        30.26R
GALLIANO*      NOT AVBL
NEW ROADS*     NOT AVBL
GONZALES*      FAIR      43  37  80 NE3       30.25R
HAMMOND*       NOT AVBL
HOUMA*         SUNNY     48  36  61 NE5       30.23R
PORT FOURCHON* PTSUNNY   55  41  58 E10       30.21S

$$

LAZ041-044-053-054-161400-
SOUTHWEST LOUISIANA

CITY           SKY/WX    TMP DP  RH WIND       PRES   REMARKS
LAKE CHARLES   SUNNY     43  38  82 E7        30.23R
LAFAYETTE      SUNNY     43  36  76 NE7       30.25R
PATTERSON      SUNNY     46  37  71 NE8       30.26R
SALT POINT       N/A     49  40  71 VRB3      30.22R
NEW IBERIA     SUNNY     46  36  68 E9        30.25R
CHENAULT AIRPK NOT AVBL

$$

LAZ027-028-161400-
CENTRAL LOUISIANA

CITY           SKY/WX    TMP DP  RH WIND       PRES   REMARKS
FORT POLK      SUNNY     41  35  79 SE6       30.22F
ALEXANDRIA INT SUNNY     41  37  86 S6        30.24R
ALEXANDRIA     SUNNY     42  37  82 E3        30.25R

$$

LAZ001-002-161400-
NORTHWEST LOUISIANA

CITY           SKY/WX    TMP DP  RH WIND       PRES   REMARKS
SHREVEPORT     MOSUNNY   43  36  76 SE6       30.22R
BARKSDALE AFB  SUNNY     42  36  76 SE9       30.22S
DTN SHREVEPORT SUNNY     43  34  70 SE9       30.22S

$$

LAZ014-016-161400-
NORTHEAST LOUISIANA

CITY           SKY/WX    TMP DP  RH WIND       PRES   REMARKS
MONROE         SUNNY     42  36  79 CALM      30.27R
TALLULAH       SUNNY     44  33  65 E9        30.28R

$$




USA.gov is the U.S. government's official web portal to all federal, state and local government web resources and services.